Location: Piotrkow Trybunalski
(51.4000°N, 19.6830°E)
Time: 06:25:40
(UTC+02:00)

STRAND 1 - Pass Details

Date: 03 March 2024
Orbit: 764 x 779 km, 98.4° (Epoch: 24 April)

Event Time Altitude Azimuth Distance (km) Brightness Sun altitude
Rises 18:36:11 0° 13° (NNE) 3,268 ? -11.7°
Reaches altitude 10° 18:38:31 10° 13° (NNE) 2,334 ? -12.1°
Maximum altitude 18:43:39 79° 288° (WNW) 794 ? -12.9°
Drops below altitude 10° 18:48:45 10° 202° (SSW) 2,307 ? -13.7°
Sets 18:51:02 0° 201° (SSW) 3,227 ? -14.0°
